Location: Passau
(48.5830°N, 13.4830°E)
Time: 21:18:46
(UTC+02:00)

Envisat - Pass Details

Date: 23 April 2024
Orbit: 762 x 764 km, 98.3° (Epoch: 29 May)

Event Time Altitude Azimuth Distance (km) Brightness Sun altitude
Rises 04:03:10 0° 19° (NNE) 3,240 7.4 -17.1°
Reaches altitude 10° 04:05:35 10° 25° (NNE) 2,309 6.6 -16.8°
Maximum altitude 04:10:28 46° 98° (E) 1,028 3.9 -16.2°
Drops below altitude 10° 04:15:19 10° 172° (S) 2,291 5.1 -15.7°
Enters shadow 04:15:59 - 174° (S) 2,545 5.4 -15.6°
